Back to catalog

COSMOS 641

AliveMilitaryLEO
NORAD 7265·PAYLOAD·🇷🇺 Russia

Launched Apr 23, 1974 from Plesetsk Cosmodrome

Loading…

Next Passes (next 24 hours)

TLE

FreshSource: Space-Track

Epoch: Sep 14, 2026, 14:34 UTC

1 07265U 74024A   26257.60709720 -.00000005  00000-0  67419-4 0  9997
2 07265  74.0182 199.5416 0059893 142.7449  29.1787 12.57357721404848

Track COSMOS 641 in real time with AllMySat

Download on the App Store